DL9GJ-4 Weather Reports


time (UTC)temp
C
wind
direction
speed
KPH
gust
KPH
rain 1hr
cm
rain 24hr
cm
rain mn
cm
humidity
%
barometer
mb
20260904085121 22 159 8.0 8.0 0.00 0.00 0.00 13 1020.0
20260904083914 21 202 4.8 6.4 0.00 0.00 0.00 16 1020.0
20260904081502 21 267 3.2 4.8 0.00 0.00 0.00 22 1020.0
20260904075658 20 275 3.2 3.2 0.00 0.00 0.00 27 1020.0
20260904075055 19 275 0.0 0.0 0.00 0.00 0.00 32 1020.0
20260904074453 18 278 3.2 3.2 0.00 0.00 0.00 33 1020.0
20260904073246 17 177 0.0 0.0 0.00 0.00 0.00 34 1020.0
20260904072647 17 177 0.0 0.0 0.00 0.00 0.00 34 1020.0
20260904072042 17 176 0.0 0.0 0.00 0.00 0.00 34 1020.0
20260904071441 17 177 0.0 0.0 0.00 0.00 0.00 34 1020.0
20260904070839 16 176 0.0 0.0 0.00 0.00 0.00 34 1020.0
20260904070236 16 177 0.0 0.0 0.00 0.00 0.00 34 1020.0
20260904065633 16 176 0.0 0.0 0.00 0.00 0.00 33 1020.0
20260904065027 16 177 0.0 0.0 0.00 0.00 0.00 32 1020.0
20260904064424 16 177 0.0 0.0 0.00 0.00 0.00 31 1020.0
20260904063218 16 178 0.0 0.0 0.00 0.00 0.00 31 1020.0
20260904062616 16 177 0.0 3.2 0.00 0.00 0.00 31 1020.0
20260904062007 16 177 0.0 0.0 0.00 0.00 0.00 31 1020.0
20260904061406 16 177 4.8 4.8 0.00 0.00 0.00 31 1020.0
20260904060838 16 142 4.8 4.8 0.00 0.00 0.00 34 1020.0
20260904060803 16 142 4.8 4.8 0.00 0.00 0.00 34 1020.0
20260904055601 16 156 0.0 3.2 0.00 0.00 0.00 36 1020.0
20260904053752 14 168 0.0 4.8 0.00 0.00 0.00 50 1020.0
20260904052549 11 139 3.2 3.2 0.00 0.00 0.00 45 1020.0
20260904051946 11 139 0.0 3.2 0.00 0.00 0.00 43 1020.0
20260904051341 11 138 0.0 4.8 0.00 0.00 0.00 43 1020.0
20260904050738 11 72 0.0 0.0 0.00 0.00 0.00 42 1020.0
20260904045533 11 72 3.2 4.8 0.00 0.00 0.00 41 1020.0
20260904044931 11 72 4.8 4.8 0.00 0.00 0.00 40 1020.0
20260904044328 11 93 3.2 3.2 0.00 0.00 0.00 40 1020.0
20260904043726 11 94 4.8 4.8 0.00 0.00 0.00 39 1021.0
20260904041918 11 93 4.8 4.8 0.00 0.00 0.00 39 1021.0
20260904041315 11 106 4.8 4.8 0.00 0.00 0.00 37 1021.0
20260904040716 11 147 0.0 0.0 0.00 0.00 0.00 37 1021.0
20260904034256 12 147 0.0 3.2 0.00 0.00 0.00 35 1021.0
20260904033656 12 147 0.0 0.0 0.00 0.00 0.00 35 1021.0
20260904033054 12 146 0.0 0.0 0.00 0.00 0.00 35 1021.0
20260904032446 13 147 0.0 0.0 0.00 0.00 0.00 34 1021.0
20260904031241 14 147 0.0 0.0 0.00 0.00 0.00 33 1021.0
20260904030639 15 146 0.0 0.0 0.00 0.00 0.00 34 1021.0
20260904030039 15 147 0.0 0.0 0.00 0.00 0.00 34 1021.0
20260904025438 15 147 0.0 0.0 0.00 0.00 0.00 34 1021.0
20260904024235 15 181 3.2 3.2 0.00 0.00 0.00 35 1021.0
20260904023634 15 178 0.0 0.0 0.00 0.00 0.00 35 1021.0
20260904021834 15 180 0.0 0.0 0.00 0.00 0.00 36 1021.0
20260904021236 15 179 0.0 3.2 0.00 0.00 0.00 37 1021.0
20260904020635 15 180 3.2 4.8 0.00 0.00 0.00 40 1021.0
20260904015435 13 173 3.2 3.2 0.00 0.00 0.00 38 1021.0
20260904014235 13 162 0.0 3.2 0.00 0.00 0.00 36 1021.0
20260904013636 13 162 0.0 0.0 0.00 0.00 0.00 36 1021.0
20260904012435 13 162 0.0 0.0 0.00 0.00 0.00 36 1022.0
20260904011234 13 162 0.0 0.0 0.00 0.00 0.00 35 1022.0
20260904010634 13 161 0.0 0.0 0.00 0.00 0.00 35 1022.0
20260904005435 13 161 0.0 0.0 0.00 0.00 0.00 35 1022.0
20260904004230 14 162 0.0 0.0 0.00 0.00 0.00 34 1022.0
20260904003631 14 162 0.0 0.0 0.00 0.00 0.00 34 1022.0
20260904003022 15 162 0.0 0.0 0.00 0.00 0.00 34 1022.0
20260904001214 15 162 0.0 0.0 0.00 0.00 0.00 34 1022.0
20260904000615 15 163 0.0 0.0 0.00 0.00 0.00 35 1022.0
20260904000013 15 162 0.0 3.2 0.00 0.00 0.00 34 1022.0
20260903235407 15 162 0.0 0.0 0.00 0.00 0.00 34 1022.0
20260903234159 15 163 0.0 0.0 0.00 0.00 0.00 35 1022.0
20260903233557 15 162 0.0 0.0 0.00 0.00 0.00 35 1022.0
20260903232955 14 162 3.2 3.2 0.00 0.00 0.00 35 1022.0
20260903232353 14 167 0.0 0.0 0.00 0.00 0.00 34 1022.0
20260903231858 13 167 0.0 0.0 0.00 0.00 0.00 33 1022.0
20260903231747 13 167 0.0 0.0 0.00 0.00 0.00 33 1022.0
20260903231147 13 167 0.0 0.0 0.00 0.00 0.00 31 1022.0
20260903230544 14 168 0.0 0.0 0.00 0.00 0.00 31 1022.0
20260903225941 14 167 0.0 0.0 0.00 0.00 0.00 30 1022.0
20260903225340 14 168 0.0 3.2 0.00 0.00 0.00 29 1022.0
20260903224137 15 167 0.0 0.0 0.00 0.00 0.00 28 1022.0
20260903221723 15 167 0.0 0.0 0.00 0.00 0.00 25 1022.0
20260903221121 16 167 0.0 0.0 0.00 0.00 0.00 24 1022.0
20260903215915 17 167 0.0 0.0 0.00 0.00 0.00 23 1022.0
20260903214103 18 167 0.0 4.8 0.00 0.00 0.00 22 1022.0
20260903213503 18 167 4.8 6.4 0.00 0.00 0.00 23 1022.0
20260903212257 16 165 4.8 4.8 0.00 0.00 0.00 30 1022.0
20260903211655 15 162 4.8 4.8 0.00 0.00 0.00 36 1022.0
20260903210450 15 94 4.8 4.8 0.00 0.00 0.00 34 1022.0
20260903205847 15 93 3.2 3.2 0.00 0.00 0.00 33 1022.0
20260903204641 15 93 0.0 3.2 0.00 0.00 0.00 32 1022.0
20260903204041 15 93 4.8 4.8 0.00 0.00 0.00 31 1022.0
20260903203436 15 93 3.2 4.8 0.00 0.00 0.00 31 1022.0
20260903202835 15 93 4.8 4.8 0.00 0.00 0.00 30 1022.0
20260903202231 15 117 0.0 0.0 0.00 0.00 0.00 29 1022.0
20260903201630 15 118 4.8 4.8 0.00 0.00 0.00 28 1022.0
20260903200430 15 141 0.0 0.0 0.00 0.00 0.00 27 1022.0
20260903195826 16 141 0.0 0.0 0.00 0.00 0.00 27 1022.0
20260903195337 16 141 3.2 4.8 0.00 0.00 0.00 27 1021.0
20260903195223 16 141 3.2 4.8 0.00 0.00 0.00 27 1021.0
20260903194622 16 141 4.8 4.8 0.00 0.00 0.00 26 1021.0
20260903194020 16 141 4.8 4.8 0.00 0.00 0.00 25 1021.0
20260903192211 17 141 4.8 4.8 0.00 0.00 0.00 24 1021.0
20260903190403 17 141 4.8 4.8 0.00 0.00 0.00 23 1021.0
20260903185158 18 142 0.0 0.0 0.00 0.00 0.00 20 1021.0
20260903183954 19 142 0.0 0.0 0.00 0.00 0.00 20 1021.0
20260903182142 20 141 0.0 4.8 0.00 0.00 0.00 20 1021.0
20260903180334 20 171 3.2 3.2 0.00 0.00 0.00 22 1021.0
20260903175736 20 155 0.0 0.0 0.00 0.00 0.00 22 1021.0
20260903175133 20 157 0.0 3.2 0.00 0.00 0.00 22 1021.0
20260903174531 20 136 3.2 3.2 0.00 0.00 0.00 22 1021.0
20260903173928 20 136 3.2 4.8 0.00 0.00 0.00 22 1021.0
20260903173327 20 156 0.0 0.0 0.00 0.00 0.00 23 1021.0
20260903165704 20 155 0.0 0.0 0.00 0.00 0.00 23 1021.0
20260903165103 20 156 0.0 0.0 0.00 0.00 0.00 23 1021.0
20260903164608 20 156 3.2 3.2 0.00 0.00 0.00 22 1021.0
20260903164458 20 156 3.2 3.2 0.00 0.00 0.00 22 1021.0
20260903163855 21 155 0.0 0.0 0.00 0.00 0.00 22 1021.0
20260903163251 21 155 0.0 0.0 0.00 0.00 0.00 22 1021.0
20260903162648 21 155 0.0 0.0 0.00 0.00 0.00 22 1021.0
20260903162045 21 156 0.0 0.0 0.00 0.00 0.00 21 1021.0
20260903161444 21 156 3.2 3.2 0.00 0.00 0.00 21 1021.0
20260903160843 21 156 0.0 0.0 0.00 0.00 0.00 21 1021.0
20260903160241 21 155 0.0 0.0 0.00 0.00 0.00 21 1021.0
20260903155639 21 155 0.0 0.0 0.00 0.00 0.00 19 1021.0
20260903155036 22 156 0.0 3.2 0.00 0.00 0.00 19 1021.0
20260903153229 22 156 0.0 0.0 0.00 0.00 0.00 18 1021.0
20260903152625 22 155 0.0 3.2 0.00 0.00 0.00 18 1021.0
20260903151418 22 155 0.0 4.8 0.00 0.00 0.00 16 1021.0
20260903144407 22 272 0.0 4.8 0.00 0.00 0.00 18 1021.0
20260903143802 22 154 3.2 4.8 0.00 0.00 0.00 21 1021.0
20260903142556 22 166 0.0 4.8 0.00 0.00 0.00 18 1021.0
20260903141954 22 163 4.8 4.8 0.00 0.00 0.00 18 1021.0
20260903140145 23 179 4.8 4.8 0.00 0.00 0.00 16 1021.0
20260903134939 23 150 4.8 4.8 0.00 0.00 0.00 18 1021.0
20260903133732 23 173 4.8 4.8 0.00 0.00 0.00 21 1021.0
20260903131924 22 179 4.8 4.8 0.00 0.00 0.00 21 1021.0
20260903131325 22 156 3.2 4.8 0.00 0.00 0.00 23 1021.0
20260903130723 22 150 8.0 8.0 0.00 0.00 0.00 22 1021.0
20260903125516 21 189 9.7 9.7 0.00 0.00 0.00 22 1021.0
20260903124914 21 165 6.4 8.0 0.00 0.00 0.00 21 1021.0
20260903123711 21 215 3.2 8.0 0.00 0.00 0.00 22 1021.0
20260903123111 21 231 4.8 6.4 0.00 0.00 0.00 21 1021.0
20260903122508 22 166 4.8 4.8 0.00 0.00 0.00 22 1022.0
20260903121908 22 176 3.2 4.8 0.00 0.00 0.00 21 1022.0
20260903120702 22 186 8.0 8.0 0.00 0.00 0.00 16 1022.0
20260903114854 23 200 4.8 6.4 0.00 0.00 0.00 15 1022.0
20260903114249 23 208 4.8 4.8 0.00 0.00 0.00 15 1022.0
20260903111237 23 171 4.8 4.8 0.00 0.00 0.00 18 1022.0
20260903110635 23 191 4.8 4.8 0.00 0.00 0.00 20 1022.0
20260903110033 23 148 4.8 4.8 0.00 0.00 0.00 20 1022.0
20260903105431 23 166 4.8 4.8 0.00 0.00 0.00 21 1022.0
20260903104830 23 159 4.8 4.8 0.00 0.00 0.00 18 1022.0
20260903104227 23 196 4.8 4.8 0.00 0.00 0.00 20 1022.0
20260903103625 23 181 4.8 6.4 0.00 0.00 0.00 18 1022.0
20260903103025 23 184 4.8 4.8 0.00 0.00 0.00 21 1022.0
20260903102417 22 154 3.2 3.2 0.00 0.00 0.00 21 1022.0
20260903095406 21 178 3.2 4.8 0.00 0.00 0.00 22 1022.0
20260903094159 22 196 3.2 4.8 0.00 0.00 0.00 22 1022.0
20260903092354 21 186 4.8 4.8 0.00 0.00 0.00 22 1022.0
20260903091749 21 182 4.8 4.8 0.00 0.00 0.00 22 1022.0
20260903085941 21 351 4.8 4.8 0.00 0.00 0.00 23 1022.0
20260903085338 21 184 3.2 4.8 0.00 0.00 0.00 23 1022.0